Wind_Speed
1 2 6 10 4 2 3 1 2 1 2 4 6 9 8 17 16 16 18 17 19 22 19 20 23 22 24 27 27 25 24 22 23 26 27 27 29 27 26 24 21 21 16 15
1 5 7 3 3 3 4 1 2 3 2 4 1 8 4 18 23 26 24 23 24 22 22 23 25 29 28 28 30 29 27 26 25 24 26 28 27 29 27 25 25 23 18 17
5 3 5 4 4 5 4 4 4 1 1 1 3 4 2 7 15 19 22 24 23 25 24 26 30 32 32 31 31 30 29 29 29 28 26 29 30 29 30 29 27 22 19 20
5 2 5 5 5 6 3 5 5 2 2 2 3 3 4 4 11 13 23 24 27 27 30 29 31 34 35 33 31 29 28 28 30 30 29 30 31 30 29 29 26 22 22 22
5 5 4 4 5 6 5 2 2 2 3 1 2 3 3 0 7 16 23 28 30 30 31 34 36 34 33 33 33 30 29 28 29 30 32 31 33 33 31 30 26 23 24 24
4 2 3 4 1 4 4 3 5 3 2 1 1 3 3 5 5 3 13 25 30 34 34 34 32 32 33 33 33 32 32 31 31 30 32 32 33 33 33 31 27 25 26 28
1 2 2 3 3 2 2 3 0 1 1 3 3 2 7 3 7 8 9 15 27 39 38 36 35 35 34 35 35 35 35 35 35 34 35 32 31 33 35 34 28 27 30 31
6 3 6 4 4 5 4 3 4 3 3 1 0 4 3 3 10 9 10 14 13 26 39 41 40 38 37 36 36 37 38 39 39 37 37 29 18 34 36 35 31 28 29 29
6 5 1 1 2 2 4 2 1 6 2 0 2 5 8 3 4 4 7 8 7 11 23 34 41 41 40 39 36 36 36 38 41 37 38 34 29 36 37 36 31 26 26 29
7 3 1 1 2 4 1 8 3 1 3 3 2 3 4 4 3 4 3 5 7 4 9 18 26 33 38 38 36 35 35 35 37 37 37 35 32 34 33 33 29 29 28 30
5 3 1 1 5 8 3 2 3 4 1 2 2 3 6 5 2 4 3 2 3 3 3 6 11 17 23 30 32 31 32 33 34 35 33 32 32 28 29 28 29 27 25 21
6 4 4 6 1 1 2 6 5 3 3 0 1 5 3 6 5 8 10 6 2 2 2 3 6 10 13 15 17 19 22 23 25 27 28 26 24 24 24 26 28 31 32 29
8 2 2 1 1 2 3 4 4 5 3 7 4 4 3 4 4 5 10 9 6 5 6 8 9 10 11 12 13 16 17 17 15 16 19 20 19 21 25 30 31 29 30 22
15 4 6 10 7 4 4 6 7 6 3 5 7 8 9 9 7 9 9 12 13 11 8 9 11 13 14 14 15 14 12 12 13 16 19 19 20 23 23 21 15 15 19 21
5 7 6 4 4 5 5 5 12 11 10 8 11 10 10 7 4 5 7 6 7 6 3 8 9 9 8 8 9 11 13 14 16 15 15 14 12 12 14 15 14 14 17 19
2 5 5 3 2 7 5 8 7 7 4 9 8 7 11 4 4 1 3 6 10 12 12 8 5 4 4 3 3 3 3 4 4 5 5 5 6 8 8 11 14 16 18 15
4 5 4 5 2 5 4 7 9 5 5 6 8 11 6 6 6 6 6 10 12 14 16 17 15 12 9 7 5 4 3 2 2 3 2 2 5 9 13 14 15 16 11 9
5 5 2 3 1 4 3 1 3 9 6 8 4 4 4 5 8 9 9 11 13 15 15 16 15 14 12 9 7 6 6 6 6 6 7 9 11 11 13 13 10 7 5 10
3 5 3 5 4 3 2 5 7 7 11 7 11 5 6 16 12 4 10 12 14 15 15 14 12 10 10 9 9 9 10 10 10 11 11 13 14 14 10 8 4 12 17 21
5 4 3 3 5 8 8 4 8 4 8 9 13 11 18 17 7 5 14 13 14 13 13 13 13 12 11 13 12 11 15 12 14 16 15 14 10 4 7 12 12 11 8 10
3 2 7 3 4 5 6 6 12 6 9 10 20 18 25 10 3 21 19 17 15 15 15 14 15 15 15 16 13 18 19 16 13 10 6 2 6 7 6 5 6 9 13 16
6 7 4 3 1 7 11 8 9 8 7 11 22 25 24 15 19 24 21 19 17 17 18 16 18 20 20 18 15 18 15 13 8 3 4 3 2 3 5 8 11 13 16 20
4 6 5 9 6 2 28 9 22 9 8 11 25 29 33 25 26 25 24 21 20 19 21 21 23 24 22 18 13 13 11 6 3 1 0 1 3 5 8 11 14 17 20 24
4 4 3 2 4 5 13 19 13 17 13 11 23 33 33 27 28 27 25 24 24 23 23 23 22 22 20 15 11 9 8 4 2 1 1 3 6 9 12 15 18 20 21 23
3 8 6 4 4 5 17 24 24 18 14 16 22 30 31 29 29 28 28 27 27 26 24 22 20 19 17 13 9 8 6 3 0 2 5 8 11 14 16 18 19 20 20 21
7 6 5 6 13 11 11 22 24 20 20 23 28 28 27 28 31 30 30 29 28 27 24 21 18 16 15 11 9 6 4 2 3 7 9 12 15 17 19 20 21 21 21 22
Wind_Direction
136 176 219 226 228 155 160 200 338 265 173 203 238 265 213 194 207 215 222 211 211 210 197 206 207 210 208 209 213 213 211 211 212 209 210 212 214 215 221 229 234 234 228 228
96 238 230 198 179 201 163 99 314 315 8 215 274 294 216 190 209 211 209 218 222 222 222 216 214 213 211 212 216 217 217 217 218 219 220 219 219 221 228 235 239 234 226 229
182 199 119 165 198 220 212 169 171 275 261 170 2 295 278 198 220 219 230 227 228 229 226 219 213 215 217 217 218 220 220 221 222 223 222 224 223 229 232 237 241 229 224 227
234 232 182 207 225 181 260 185 175 107 29 290 347 302 278 225 216 215 227 228 228 222 228 223 220 218 217 217 220 221 224 225 226 227 228 229 231 234 241 246 247 234 227 228
230 179 178 191 221 166 234 170 65 106 170 153 158 207 273 16 244 229 226 226 230 229 225 222 219 223 225 225 226 226 228 229 229 230 230 234 237 240 248 252 245 232 229 233
211 205 193 205 162 185 121 92 55 73 96 198 212 206 264 211 228 278 247 230 226 226 228 229 229 226 227 229 231 232 233 235 236 234 235 239 242 246 250 250 242 238 237 234
2 214 244 169 149 117 129 118 325 105 131 217 125 192 247 237 245 251 266 248 230 230 229 229 229 231 233 232 231 232 232 236 238 238 239 242 249 250 249 251 249 250 239 234
178 240 187 182 192 180 172 190 165 190 182 274 15 237 240 217 286 291 286 290 258 236 232 231 233 234 238 241 241 238 236 238 242 242 242 238 257 261 254 252 251 246 248 243
155 239 190 202 147 183 154 179 94 104 25 148 245 277 273 308 322 333 335 336 314 250 237 237 236 237 240 244 243 243 241 240 246 245 246 243 243 251 256 256 249 250 242 235
194 157 227 161 161 37 222 145 134 48 171 236 247 274 259 325 348 328 3 338 327 306 246 239 240 242 243 247 250 248 249 249 250 253 251 252 257 256 258 253 245 240 237 232
136 130 217 158 205 177 147 173 68 123 149 204 245 243 215 241 275 305 292 287 312 5 305 265 246 243 246 249 254 258 258 255 254 259 257 257 260 262 259 244 237 238 242 238
187 153 177 197 141 283 206 177 157 154 196 352 263 262 257 254 272 287 289 280 250 202 154 231 239 239 244 250 252 255 259 259 258 262 262 264 259 257 251 240 240 237 234 234
174 187 147 355 46 34 228 194 140 107 96 191 206 246 185 291 294 270 285 308 286 252 223 199 196 212 222 228 235 243 250 260 267 265 260 264 259 248 245 239 239 241 230 230
146 141 172 220 221 157 191 200 180 155 162 196 226 256 270 277 282 288 304 311 308 291 267 239 234 222 219 231 240 253 260 257 256 253 258 263 261 254 249 243 243 268 235 226
149 186 180 232 232 189 217 185 181 197 215 198 239 214 250 251 247 305 315 331 348 352 284 242 240 239 247 251 256 254 249 245 248 254 259 261 272 267 254 236 226 216 209 212
229 180 147 211 154 196 218 229 205 226 214 243 248 251 235 203 183 97 83 103 84 70 76 99 135 158 191 212 228 242 237 246 250 256 262 265 251 239 222 203 191 206 209 229
176 137 133 223 170 149 302 213 194 192 207 199 202 229 163 189 152 123 102 112 103 94 91 90 91 95 101 106 111 122 126 133 129 109 113 183 190 183 181 188 203 207 211 196
159 138 111 156 148 208 232 63 181 215 242 220 260 230 204 160 130 130 136 131 117 108 101 96 93 94 96 98 104 111 115 115 111 119 132 146 163 177 180 178 173 177 208 258
182 132 124 155 205 303 212 195 183 176 251 212 227 197 159 141 129 112 140 139 124 116 111 107 104 102 105 105 103 114 114 114 122 128 139 152 158 152 155 170 228 290 288 285
95 59 133 151 187 210 215 210 160 129 277 206 193 177 161 156 176 172 163 145 132 125 119 116 109 105 106 102 108 118 115 121 125 134 139 148 167 193 297 296 296 299 303 296
125 73 192 167 222 276 246 167 147 160 252 194 196 177 167 183 183 162 161 150 142 132 128 126 125 123 115 113 121 116 119 120 127 133 141 212 289 290 292 307 306 299 297 296
171 160 179 118 187 252 158 127 176 214 184 203 196 186 171 170 147 152 155 148 141 137 133 134 131 120 116 120 127 122 120 122 134 177 262 282 294 304 305 304 305 306 306 306
255 205 183 189 210 202 183 203 202 199 212 198 196 186 180 162 157 157 152 147 144 142 137 136 132 129 127 128 129 130 123 129 137 147 63 310 308 311 311 310 311 313 311 311
232 187 209 147 207 223 219 222 221 225 230 226 203 187 183 170 162 157 153 150 147 144 142 140 138 135 134 137 136 128 125 130 139 135 319 317 315 317 318 319 319 319 320 320
186 150 175 264 264 286 251 232 234 237 229 208 185 185 186 177 164 163 157 155 152 149 145 146 144 140 136 138 135 127 130 125 60 341 333 327 324 325 326 327 329 330 331 330
190 173 174 216 202 195 228 234 222 216 206 192 180 169 173 178 168 164 158 158 156 153 151 150 146 144 138 139 136 133 121 71 343 331 329 330 332 333 333 334 334 335 335 335
Height
1500 1501 1502 1498 1501 1499 1501 1504 1503 1498 1495 1497 1496 1495 1497 1500 1504 1503 1504 1506 1507 1508 1514 1517 1520 1524 1528 1531 1534 1536 1539 1542 1545 1548 1551 1552 1555 1557 1561 1563 1565 1567 1568 1570
1502 1501 1495 1497 1500 1501 1498 1500 1500 1497 1496 1498 1497 1492 1494 1496 1494 1496 1498 1501 1503 1506 1509 1513 1516 1519 1521 1525 1529 1532 1535 1539 1542 1545 1548 1549 1552 1555 1558 1560 1561 1562 1564 1566
1499 1494 1492 1495 1497 1499 1496 1496 1500 1499 1497 1497 1493 1492 1492 1496 1498 1500 1498 1499 1502 1503 1506 1509 1511 1514 1517 1519 1522 1526 1530 1535 1539 1542 1544 1546 1549 1552 1553 1553 1556 1558 1561 1563
1496 1491 1492 1494 1494 1494 1498 1490 1493 1494 1497 1501 1496 1503 1493 1491 1493 1495 1495 1496 1496 1499 1502 1505 1507 1508 1511 1514 1520 1524 1528 1531 1534 1537 1539 1541 1544 1545 1547 1551 1553 1555 1558 1559
1490 1490 1491 1493 1490 1489 1492 1491 1491 1494 1499 1500 1503 1502 1487 1491 1487 1484 1485 1487 1488 1490 1494 1497 1500 1505 1509 1513 1516 1520 1523 1526 1529 1532 1535 1537 1540 1543 1545 1547 1549 1551 1554 1555
1487 1486 1487 1485 1486 1488 1488 1492 1496 1499 1502 1507 1500 1499 1489 1484 1480 1478 1477 1481 1481 1484 1487 1491 1496 1501 1504 1508 1511 1515 1518 1521 1524 1527 1530 1534 1537 1539 1541 1542 1544 1547 1549 1550
1486 1485 1484 1483 1486 1487 1490 1493 1503 1508 1509 1506 1502 1503 1484 1478 1476 1474 1472 1472 1474 1477 1482 1484 1488 1492 1497 1500 1505 1509 1513 1515 1518 1523 1525 1530 1532 1534 1536 1538 1540 1541 1542 1543
1488 1493 1482 1479 1480 1483 1488 1489 1500 1509 1509 1504 1503 1499 1477 1474 1473 1471 1469 1468 1468 1470 1474 1478 1481 1486 1490 1494 1498 1502 1506 1509 1512 1516 1518 1524 1527 1526 1529 1532 1534 1535 1537 1539
1489 1488 1478 1478 1478 1480 1487 1491 1492 1507 1520 1512 1499 1488 1476 1473 1471 1470 1467 1465 1465 1466 1469 1472 1476 1480 1484 1487 1491 1495 1500 1503 1505 1509 1512 1516 1519 1520 1522 1526 1527 1530 1532 1532
1474 1484 1480 1478 1479 1482 1482 1485 1495 1500 1509 1511 1501 1498 1485 1474 1472 1471 1469 1466 1464 1464 1465 1468 1470 1475 1479 1483 1487 1491 1494 1498 1501 1503 1506 1509 1512 1515 1517 1519 1521 1523 1525 1528
1470 1474 1483 1479 1479 1477 1486 1488 1494 1494 1501 1501 1506 1492 1476 1472 1471 1470 1470 1468 1466 1464 1465 1466 1468 1470 1474 1478 1482 1486 1489 1493 1496 1498 1501 1505 1507 1509 1511 1513 1515 1518 1521 1524
1464 1472 1484 1475 1474 1474 1474 1476 1482 1493 1500 1508 1507 1493 1469 1469 1471 1471 1467 1466 1465 1465 1465 1465 1467 1469 1471 1475 1478 1481 1485 1488 1491 1494 1496 1499 1501 1503 1506 1507 1509 1511 1512 1514
1461 1473 1481 1478 1478 1477 1476 1476 1479 1487 1494 1498 1500 1486 1468 1467 1466 1465 1464 1463 1463 1464 1464 1465 1466 1468 1470 1473 1475 1478 1480 1484 1487 1490 1492 1494 1496 1497 1499 1500 1501 1506 1503 1508
1448 1465 1465 1471 1468 1469 1476 1474 1475 1475 1489 1483 1485 1473 1465 1463 1463 1460 1461 1461 1460 1460 1461 1463 1465 1465 1468 1470 1473 1476 1480 1482 1485 1487 1488 1490 1491 1493 1495 1499 1500 1503 1505 1508
1448 1458 1463 1461 1461 1464 1462 1464 1470 1470 1465 1474 1465 1473 1461 1460 1458 1459 1459 1458 1458 1458 1457 1458 1460 1463 1467 1469 1472 1474 1477 1478 1481 1483 1485 1486 1489 1492 1494 1496 1498 1502 1504 1508
1448 1454 1459 1462 1463 1462 1463 1459 1464 1466 1467 1468 1466 1465 1456 1456 1457 1458 1458 1457 1457 1458 1456 1456 1458 1461 1464 1466 1469 1471 1474 1476 1478 1480 1482 1484 1487 1490 1493 1495 1498 1502 1504 1507
1450 1455 1461 1463 1465 1463 1470 1458 1458 1459 1457 1455 1464 1450 1452 1454 1455 1458 1459 1458 1458 1458 1458 1458 1459 1460 1463 1466 1468 1470 1472 1474 1476 1478 1481 1483 1487 1490 1493 1496 1498 1499 1502 1503
1448 1452 1462 1468 1474 1473 1444 1447 1448 1450 1448 1450 1450 1448 1449 1451 1455 1457 1458 1459 1458 1459 1459 1459 1461 1462 1464 1466 1468 1470 1472 1474 1476 1479 1481 1485 1488 1491 1493 1496 1497 1500 1502 1503
1440 1450 1462 1464 1462 1454 1445 1444 1446 1446 1437 1439 1441 1444 1448 1452 1454 1457 1456 1458 1458 1459 1460 1460 1462 1464 1465 1467 1469 1471 1473 1475 1478 1480 1483 1486 1489 1492 1495 1497 1499 1500 1500 1499
1443 1445 1447 1467 1458 1457 1438 1432 1434 1437 1444 1431 1434 1438 1444 1449 1452 1451 1454 1456 1456 1458 1460 1461 1462 1464 1466 1468 1471 1472 1474 1477 1480 1483 1486 1489 1491 1494 1495 1496 1496 1496 1495 1495
1444 1449 1446 1459 1449 1442 1430 1428 1433 1446 1431 1423 1427 1430 1438 1441 1442 1445 1451 1454 1456 1457 1459 1461 1463 1465 1468 1471 1474 1474 1477 1480 1484 1487 1489 1490 1491 1492 1493 1493 1493 1493 1492 1490
1430 1439 1445 1453 1451 1438 1422 1430 1432 1418 1418 1418 1422 1426 1433 1438 1441 1446 1450 1453 1456 1458 1460 1463 1464 1466 1470 1474 1475 1477 1480 1483 1485 1487 1488 1488 1489 1489 1490 1490 1490 1489 1488 1486
1431 1420 1422 1424 1419 1411 1411 1408 1410 1412 1415 1414 1418 1423 1428 1433 1438 1444 1448 1453 1457 1460 1461 1464 1465 1467 1472 1475 1478 1479 1481 1483 1485 1486 1487 1487 1488 1488 1487 1487 1486 1485 1483 1480
1417 1415 1415 1416 1408 1409 1408 1407 1408 1409 1411 1413 1414 1418 1424 1429 1436 1442 1447 1452 1456 1459 1462 1465 1467 1470 1472 1476 1478 1479 1481 1483 1484 1485 1486 1486 1486 1485 1484 1483 1481 1480 1477 1474
1407 1410 1411 1411 1407 1408 1404 1402 1404 1408 1409 1410 1413 1416 1421 1426 1433 1438 1444 1450 1454 1458 1462 1466 1468 1470 1473 1476 1477 1479 1481 1482 1483 1484 1484 1483 1483 1481 1479 1478 1476 1474 1472 1469
1399 1400 1404 1401 1391 1392 1392 1394 1398 1402 1406 1408 1409 1414 1421 1426 1428 1437 1443 1449 1453 1457 1462 1465 1468 1470 1472 1474 1476 1478 1480 1481 1481 1481 1480 1479 1478 1475 1473 1471 1470 1469 1466 1463